Regional Weather Roundup
Issued by NWS Mt. Holly, NJ

Home | Current Version | Previous Version | Text Only | Print | Product List | Glossary On
Versions: 1 2 3 4 5 6 7 8 9 10 11 12 13 14 15 16 17 18 19 20 21 22 23 24 25 26 27 28 29 30 31 32 33 34 35 36 37 38 39 40 41 42 43 44 45 46 47 48 49 50
000
ASUS41 KPHI 302210
RWRPHI

REGIONAL WEATHER ROUNDUP
NATIONAL WEATHER SERVICE MOUNT HOLLY NJ
600 PM EDT WED JUL 30 2014

NOTE:  "FAIR" INDICATES FEW OR NO CLOUDS BELOW 12,000 FEET WITH NO
SIGNIFICANT WEATHER AND/OR OBSTRUCTIONS TO VISIBILITY.

 * = STATION DOES NOT REPORT PRECIPITATION (E.G. RAIN, SNOW, ETC.)
        OR FOG.

NJZ015>026-302300-
SOUTHERN NEW JERSEY

CITY           SKY/WX    TMP DP  RH WIND       PRES   REMARKS
POMONA         SUNNY     77  51  40 W8        30.02S
RIO GRANDE*    SUNNY     75  52  43 W5        30.05S
MILLVILLE      MOSUNNY   77  53  43 SW7       30.03F
WRIGHTSTOWN    MOSUNNY   78  53  41 SW10      29.99F
MOUNT HOLLY    PTSUNNY   77  54  44 CALM      30.01F
TRENTON        MOSUNNY   77  50  38 NW5       30.00F

$$
NJZ001>014-302300-
NORTHERN NEW JERSEY

CITY           SKY/WX    TMP DP  RH WIND       PRES   REMARKS
SUSSEX         SUNNY     77  55  46 VRB5      30.00F
ANDOVER*         N/A     74  54  49 SW6       30.02S
MORRISTOWN     MOSUNNY   79  50  36 SW7       30.01S
NEWARK         MOSUNNY   79  50  36 SW12G17   29.99F
TETERBORO      SUNNY     80  50  34 SW7       29.98F
CALDWELL       MOSUNNY   77  52  41 CALM      30.00F
SOMERVILLE     SUNNY     77  53  43 VRB3      29.99F
ALLAIRE*       SUNNY     75  55  50 S7        30.02S
TOMS RIVER*    PTSUNNY   81  48  32 SW5       30.01F

$$
PAZ043-044-047-054-055-060>062-066>071-302300-
EASTERN PENNSYLVANIA

CITY           SKY/WX    TMP DP  RH WIND       PRES   REMARKS
PHILADELPHIA   MOSUNNY   79  52  38 SW10G24   30.02F
NORTH PHILA    PTSUNNY   80  50  34 W9        30.02F
BLUE BELL      SUNNY     77  52  41 CALM      30.01S
DOYLESTOWN     MOSUNNY   74  53  48 W5        30.01F
QUAKERTOWN*    MOSUNNY   75  55  50 SW6       30.03F
POTTSTOWN      MOSUNNY   75  51  43 VRB3      30.04S
LANCASTER      SUNNY     75  53  46 SW9       30.01F
COATESVILLE    MOSUNNY   72  54  53 SW3       30.04F
READING        SUNNY     77  52  41 W7        30.01S
ALLENTOWN      SUNNY     76  54  46 W9        30.01F
MOUNT POCONO   MOSUNNY   70  50  49 SW8       30.05S
HAZLETON       SUNNY     70  52  52 SW5       30.07S
WILKES BARRE   PTSUNNY   75  51  43 SW7       30.01S

$$
DEZALL-MDZ008-012-015-019-020-302300-
DELAWARE AND EASTERN MARYLAND

CITY           SKY/WX    TMP DP  RH WIND       PRES   REMARKS
WILMINGTON     SUNNY     77  54  44 SW9       30.03F
DOVER          SUNNY     77  51  39 W8        30.02S
GEORGETOWN     MOSUNNY   78  52  40 VRB7      30.04F
EASTON         SUNNY     79  54  41 SW5       30.08S
PATUXENT       MOSUNNY   78  50  37 W9        30.04S
OCEAN CITY     SUNNY     74  59  59 SE8       30.04F
WALLOPS ISLAND SUNNY     79  53  40 W6        30.05S
CAMBRIDGE      SUNNY     79  52  38 CALM      30.04S
SALISBURY      SUNNY     80  50  34 W6        30.04S

$$
PAZ001-021-NYZ056-072-MDZ011-DCZ001-302300-
OTHER NEARBY LOCATIONS

CITY           SKY/WX    TMP DP  RH WIND       PRES   REMARKS
HARRISBURG     MOSUNNY   78  56  46 VRB5      30.00F
STATE COLLEGE  PTSUNNY   70  55  60 SW8       30.02S
WILLIAMSPORT   PTSUNNY   74  53  48 S7        29.98F
BINGHAMTON     SUNNY     69  55  60 SW9       30.01S
NEW YORK CITY  PTSUNNY   78  51  38 W5        30.02F
BALTIMORE      MOSUNNY   79  48  33 W5        30.02S
WASHINGTON DC  MOSUNNY   79  55  43 S12       30.03F

$$



USA.gov is the U.S. government's official web portal to all federal, state and local government web resources and services.